www.pogodaiklimat.ru

Погода и климат >> Архив погоды >> Мали >> Bamako


ПОГОДА в Bamako

  • Прогноз погоды в Bamako
  • Монитор погоды в Bamako
  • Климат города

АРХИВ ПОГОДЫ в Bamako

Время (UTC), дата Ветер
(напр.,м/с)
 
Видим.   Явления Облачность Т
(С)
Тd
(С)
f
(%)
Тe
(С)
Тes
(С)
Комфортность P
(гПа)
Po
(гПа)
Тmin
(С)
Tmax
(С)
R
(мм)
R24
(мм)
S
(см)
15 14.06 Ю 2 10 км 6/1 900 м
[Sc Ac lent Ci sp]
+32.5 +20.8 50 +40 +49 очень
душно
1011.7 971.3
18 14.06 ЮЗ 3 10 км 6/1 900 м
[Sc Ac lent Ci sp]
+31.9 +22.9 59 +42 +42 опасность
перегрева
1010.6 970.3 +33.8
21 14.06 ЮЗ 2 10 км 5/1 900 м
[Sc Ac lent Ci sp]
+28.0 +24.3 80 +39 +39 очень
душно
1012.0 971.6
00 15.06 ЮЗ 3 10 км 5/1 900 м
[Sc Ac lent Ci sp]
+26.6 +24.0 86 +37 +37 очень
душно
1012.2 972.0
03 15.06 Ю 2 10 км 4/1 900 м
[Sc Ac lent Ci sp]
+25.8 +24.1 90 +36 +36 очень
душно
1011.6 971.5
06 15.06 ЮЗ 3 10 км 6/1 900 м
[Sc Ac lent Ci sp]
+25.5 +23.3 88 +34 +34 очень
душно
1012.1 971.9 +25.0
09 15.06 ЮЗ 2 10 км 6/1 900 м
[Sc Ac lent Ci sp]
+27.8 +22.9 75 +37 +43 очень
душно
1013.0 972.6
12 15.06 ЮЗ 2 10 км 6/3 900 м
[Sc Ac lent Ci sp]
+31.0 +24.6 69 +44 +55 опасность
перегрева
1012.7 972.5
15 15.06 Ю 4 10 км 6/3 900 м
[Sc Ac lent Ci sp]
+33.6 +25.0 61 +47 +53 опасность
перегрева
1010.5 970.6
18 15.06 ЮЗ 3 10 км 6/0
[Ci sp]
+32.5 +24.3 62 +45 +46 опасность
перегрева
1009.8 969.7 +34.0
21 15.06 ЮЗ 3 10 км 6/0
[Cs]
+29.2 +22.9 69 +39 +39 очень
душно
1010.8 970.6
00 16.06 ЮЗ 3 10 км 6/0
[Ci sp]
+27.9 +23.6 77 +38 +38 очень
душно
1011.3 971.3
03 16.06 ЮЗ 2 10 км 6/0
[Ci sp]
+26.2 +23.3 84 +35 +35 очень
душно
1010.3 970.4
06 16.06 ЮЗ 2 10 км 6/0
[Ci sp]
+25.5 +23.1 87 +34 +34 очень
душно
1009.6 969.5 +24.5
09 16.06 ЮЗ 5 10 км 4/0
[Ac lent Ci sp]
+28.9 +23.7 74 +40 +44 очень
душно
1011.4 971.3
12 16.06 С 2 10 км 3/0
[Ci sp]
+35.0 +19.9 41 +41 +60 опасность
перегрева
1010.7 970.8
15 16.06 СВ 3 10 км 5/0
[Ci sp]
+37.5 +17.1 30 +40 +51 опасность
солнечного
удара
1008.6 968.8
18 16.06 В 2 10 км 6/0
[Ci sp]
+37.3 +15.3 27 +39 +40 очень
душно
1007.3 967.5 +38.4
21 16.06 Ю 3 10 км 6/0
[Ci sp]
+30.8 +22.8 62 +40 +40 очень
душно
1008.5 968.6
00 17.06 Ю 3 10 км 4/1 900 м
[Sc Ci sp]
+28.5 +23.2 73 +38 +38 очень
душно
1009.7 970.0
03 17.06 ЮЗ 3 10 км 5/1 900 м
[Sc Ac lent Ci sp]
+27.6 +23.2 77 +37 +37 очень
душно
1009.0 969.4
06 17.06 ЮЗ 3 10 км 9/1 900 м
[Cb cap Ac As Ci sp]
+26.8 +22.8 79 +36 +36 очень
душно
1010.5 970.8 +26.6
09 17.06 ЮЗ 7 10 км 6/3 900 м
[Sc Ac lent Ci sp]
+28.6 +22.7 70 +38 +39 очень
душно
1012.6 972.5
12 17.06 ЮЗ 7 10 км 8/4 900 м
[Sc Ac lent Ci sp]
+31.0 +22.7 61 +41 +43 опасность
перегрева
1011.7 971.6
15 17.06 Ю 1 10 км 9/3 900 м
[Cb cap Ac As Ci sp]
+31.6 +23.9 64 +43 +50 опасность
перегрева
1010.5 970.5
18 17.06 ЮЗ 8 10 км 9/3 900 м
[Cb cap Ac As Ci sp]
+31.4 +21.4 55 +39 +39 очень
душно
1010.9 970.7 +32.7
21 17.06 ЮЗ 3 10 км 9/3 900 м
[Sc Ac As Ci sp]
+27.5 +17.6 55 +32 +32 очень
душно
1012.4 972.0
00 18.06 ЮЗ 4 10 км 6/1 900 м
[Sc Ac lent Ci sp]
+25.0 +19.5 72 +30 +30 душно 1013.4 972.9
03 18.06 ЮЗ 3 10 км 8/1 900 м
[Sc Ac As]
+24.4 +21.0 81 +31 +31 очень
душно
1012.5 972.1
06 18.06 ЮЗ 3 10 км 8/1 900 м
[Sc Ac As]
+23.9 +20.6 82 +30 +30 очень
душно
1012.7 972.2 +23.9
09 18.06 ЮЗ 4 10 км 5/0
[Ac As]
+26.2 +22.3 79 +34 +38 очень
душно
1013.7 973.1
12 18.06 ЮЗ 5 10 км 6/0
[Ac As]
+31.0 +20.7 54 +38 +44 очень
душно
1013.0 972.6
15 18.06 ЮЗ 6 10 км 9/1 900 м
[Sc Ac As]
+34.0 +20.9 46 +41 +43 опасность
перегрева
1010.6 970.5
18 18.06 ЮЗ 6 10 км 8/1 900 м
[Sc Ac As]
+32.1 +21.0 52 +40 +40 очень
душно
1009.8 969.5 +34.2
21 18.06 ЮЗ 4 10 км 5/0
[Ci sp]
+30.0 +20.4 56 +37 +37 очень
душно
1010.9 970.6
00 19.06 Ю 5 10 км 9/3 900 м
[Cb cap Ac As Ci sp]
+28.4 +22.0 68 +37 +37 очень
душно
1013.0 972.8
03 19.06 С 4 10 км гроза, ливневой дождь 10/3 900 м
[Cb cap Ac As]
+22.9 +19.4 81 +29 +29 очень
душно
1013.9 973.3
06 19.06 СЗ 6 10 км слабый дождь {гроза} 10/3 900 м
[Sc diur, vesp Ac As]
+22.1 +19.7 86 +28 +28 душно 1011.4 970.8 +21.4 2
09 19.06 Ю 3 10 км 9/1 900 м
[Sc Ac lent Ci sp]
+25.7 +20.1 71 +32 +35 очень
душно
1012.0 971.6
12 19.06 З 4 10 км 4/0
[Ci sp]
+30.3 +21.9 61 +39 +50 очень
душно
1010.9 970.8 0.0
15 19.06 СЗ 3 10 км 4/0
[Ci sp]
+34.5 +20.7 45 +42 +52 опасность
перегрева
1008.4 968.3
18 19.06 ЮЗ 2 10 км 4/0
[Ci sp]
+34.2 +20.9 46 +41 +42 опасность
перегрева
1008.8 968.5 +35.5
21 19.06 ЮЗ 2 10 км 6/0
[Ci sp]
+29.1 +22.5 68 +38 +38 очень
душно
1009.8 969.5
00 20.06 ЮЗ 5 10 км 3/0
[Ci sp]
+27.3 +22.1 73 +35 +35 очень
душно
1010.8 970.6
03 20.06 ЮЗ 5 10 км 4/0
[Ci sp]
+26.7 +22.0 75 +34 +34 очень
душно
1010.2 970.3
06 20.06 ЮЗ 5 10 км 4/0
[Ci sp]
+25.1 +22.0 83 +32 +32 очень
душно
1010.8 970.8 +25.1 0.0
09 20.06 ЮЗ 7 10 км 4/0
[Ci sp]
+27.8 +21.5 69 +36 +38 очень
душно
1011.0 970.8
12 20.06 З 5 10 км 4/0
[Ci sp]
+31.6 +21.3 54 +39 +49 очень
душно
1010.2 971.5
15 20.06 З 4 10 км 8/0
[Ac lent Ci sp]
+33.4 +21.2 49 +41 +46 опасность
перегрева
1009.2 969.2
18 20.06 ЮЗ 4 10 км 8/0
[Ac lent Ci sp]
+33.0 +19.9 46 +39 +39 очень
душно
1009.1 969.0 +33.7
21 20.06 ЮЗ 3 10 км 6/0
[Ac lent Ci sp]
+30.0 +21.6 61 +38 +38 очень
душно
1010.2 970.1
00 21.06 ЮЗ 5 10 км 6/0
[Ac lent Ci sp]
+29.0 +21.4 64 +37 +37 очень
душно
1010.0 970.0
03 21.06 ЮЗ 5 10 км 8/0
[Ac lent Ci sp]
+27.8 +22.0 71 +36 +36 очень
душно
1009.1 969.2
06 21.06 ЮЗ 4 10 км 9/0
[Ac lent Ci sp]
+26.5 +22.1 77 +34 +34 очень
душно
1009.9 969.9 +26.5
09 21.06 ЮЗ 6 10 км 9/0
[Ac lent Ci sp]
+27.8 +22.3 72 +36 +38 очень
душно
1011.2 971.0
12 21.06 ЮЗ 5 10 км 8/1 900 м
[Sc Ac lent Ci sp]
+31.4 +22.5 59 +41 +47 опасность
перегрева
1010.7 970.8

 

Местоположение метеостанции Bamako (Мали): широта 12.53 долгота -7.95 высота над уровнем моря 381 м.

В архиве по умолчанию представлена погода в Bamako за последнюю неделю. Архивные данные за месяц целиком и за предыдущие месяцы, начиная с января 2011 года, Вы можете получить, выбрав интересующий диапазон дат из раскрывающегося списка и нажав кнопку "Ввод!".


*Определитесь, кто Вы:
робот инопланетянин человек

Внимание! Время в таблицах - всемирное. Для получения местного времени необходимо прибавить поправку, которая в Bamako равна 0 ч.

Смотрите также архив погоды в соседних городах и на ближайших метеорологических станциях:

Погода в Bougouni (Мали) (133 км)
Погода в Kita (Мали) (175 км)
Погода в Segou (Мали) (218 км)
Погода в Koutiala (Мали) (270 км)
Погода в Sikasso (Мали) (280 км)
Погода в Nara (Мали) (302 км)
Погода в Odienne (Кот-д'Ивуар) (335 км)
Погода в Nioro Du Sahel (Мали) (336 км)
Погода в San (Мали) (350 км)
Погода в Kenieba (Мали) (358 км)

Пояснения к столбцам:

Ветер - указаны скорость ветра в м/с - средняя за 10 мин, порывы в срок и между сроками (в фигурных скобках) и направление, откуда дует ветер: С - северный, СВ - северо-восточный, В - восточный, ЮВ - юго-восточный, Ю - южный, ЮЗ - юго-западный, З - западный, СЗ - северо-западный.
Видимость - горизонтальная дальность видимости в метрах или километрах. При видимости от 1 до 10 км при отсутствии осадков обычно наблюдается дымка, при ухудшении видимости до 1 км и менее - туман. В сухую погоду видимость может ухудшаться дымом, пылью или мглою.
Явления - указаны атмосферные явления, наблюдавшиеся в срок или в последний час перед сроком; фигурными скобками обозначены явления, наблюдавшиеся между сроками (за 1-3 часа до срока); квадратными скобками обозначены град или гололедные отложения с указанием их диаметра в мм.
Облачность - указаны через наклонную черту общая и нижняя облачность в баллах и высота нижней границы облаков в метрах; квадратными скобками обозначены формы облаков: Ci - перистые, Cs - перисто-слоистые, Cc - перисто-кучевые, Ac - высококучевые, As - высокослоистые, Sc - слоисто-кучевые, Ns - слоисто-дождевые, Cu - кучевые, Cb - кучево-дождевые. Подробнее классификацию облаков см. в Атласе облаков (PDF).
T - Температура воздуха - температура, измеренная на высоте 2 м над землей.
Td - Температура точки росы - температура, при понижении до которой содержащийся в воздухе водяной пар достигнет насыщения.
f - Относительная влажность воздуха - влажноcть воздуха, измеренная на высоте 2 м над землей.
Te - Эффективная температура - температура, которую ощущает одетый по сезону человек в тени. Характеристика душности погоды. При расчете учитывается влияние влажности воздуха и скорости ветра на теплоощущения человека.
Tes - Эффективная температура на солнце - температура, которую ощущает человек, с поправкой на солнечный нагрев. Характеристика знойности погоды. Зависит от высоты солнца над горизонтом, облачности и скорости ветра. Ночью, в пасмурную погоду, а также при ветре 12 м/с и более поправка равна нулю.
P - Атмосферное давление - приведенное к уровню моря атмосферное давление.
Po - Атмосферное давление - измеренное на уровне метеостанции атмосферное давление.
Tmin - Минимальная температура - минимум температуры воздуха на высоте 2 м над землей.
Tmax - Максимальная температура - максимум температуры воздуха на высоте 2 м над землей.
R - Количество осадков - Количество выпавших осадков за период времени, мм. При наведении курсора мыши на число - период времени, за который выпало указанное количество осадков.
R24 - Количество осадков - Количество выпавших осадков за 24 часа, мм.
S - Снежный покров - Высота снежного покрова, см. При наведении курсора мыши на число - состояние снежного покрова и степень покрытия местности в баллах.